RS-22
1 27939U 03042A 18095.87758464 .00000086 00000-0 23917-4 0 9991
2 27939 97.9781 236.9285 0013367 23.8865 127.2237 14.66671495776216
NOAA-18
1 28654U 05018A 18095.56427512 -.00000025 00000-0 11571-4 0 9991
2 28654 099.1537 129.5094 0013710 335.1770 024.8739 14.12371429663438
CO-58
1 28895U 05043F 18095.66897515 .00000127 00000-0 33262-4 0 9994
2 28895 97.8982 250.1045 0015543 300.9129 59.0545 14.63526456663269
Falconsat-3
1 30776U 07006E 18095.78676171 .00002705 00000-0 81296-4 0 9996
2 30776 35.4372 7.5438 0001717 95.8385 264.2537 15.34193151613192
CO-65
1 32785U 08021C 18095.49477601 .00000205 00000-0 27944-4 0 9994
2 32785 097.5511 111.1312 0011515 280.8822 079.1099 14.88088843538292
AAUSAT2
1 32788U 08021F 18095.50157492 .00000678 00000-0 68203-4 0 9999
2 32788 097.5290 125.0120 0010686 226.3408 133.6928 14.94275232539221
DO-64
1 32789U 08021G 18095.22352093 .00001457 00000-0 10435-3 0 9992
2 32789 097.5205 151.8599 0012736 179.4407 180.6836 15.05880282540705
CO-66
1 32791U 08021J 18095.83592582 .00000196 00000-0 25468-4 0 9993
2 32791 97.5415 116.6475 0011822 257.9325 102.0569 14.90505515538736
RS-30
1 32953U 08025A 18095.84480923 .00000028 00000-0 13048-3 0 9997
2 32953 82.5033 57.6619 0019624 11.3273 348.8244 12.43082552447783
PRISM
1 33493U 09002B 18095.87339712 .00000970 00000-0 91705-4 0 9998
2 33493 98.1384 355.1654 0014585 189.5237 170.5708 14.96138932499538
NOAA-19
1 33591U 09005A 18095.52226929 .00000089 00000-0 73456-4 0 9991
2 33591 099.1357 072.1330 0014134 166.8650 193.2891 14.12267089471654
TISAT-1
1 36799U 10035E 18095.42506529 .00000318 00000-0 38426-4 0 9998
2 36799 098.0942 229.7654 0013772 088.5564 271.7231 14.90742178419111
JUGNU
1 37839U 11058B 18095.31182979 .00000322 00000-0 29625-4 0 9993
2 37839 019.9608 119.1479 0018989 162.7765 297.7004 14.12614696334948
SRMSAT
1 37841U 11058D 18095.51434036 .00000293 00000-0 15748-4 0 9990
2 37841 019.9711 165.6256 0012076 052.8225 073.4160 14.10602471334517
AO-71
1 37854U 11061E 18095.49979800 .00000948 00000-0 57700-4 0 9999
2 37854 101.7109 123.2333 0163944 289.0292 069.3223 15.05260304350441
HRBE
1 37855U 11061F 18095.51064920 .00000719 00000-0 45152-4 0 9995
2 37855 101.7242 120.8563 0176876 297.3242 061.0059 15.04239275350250
ALMASAT-1
1 38078U 12006B 18095.83327547 .00020938 38886-5 19226-3 0 9990
2 38078 69.4354 56.3457 0258115 215.8047 230.2435 15.36485101329522
HORYU-2
1 38340U 12025D 18095.51524000 .00000176 00000-0 34003-4 0 9996
2 38340 098.3716 114.7230 0012941 083.6483 276.6198 14.75523116305980
RS-40
1 38735U 12041C 18095.56814231 .00000006 00000-0 -28147-4 0 9990
2 38735 082.4746 141.9054 0018220 111.6919 248.6102 12.42576822257987
BEESAT-3
1 39134U 13015E 18095.19010925 .00001071 00000-0 60401-4 0 9994
2 39134 064.8652 003.0069 0020734 219.3213 140.6409 15.18960662273435
BEESAT-2
1 39136U 13015G 18095.16925079 .00000739 00000-0 48250-4 0 9996
2 39136 64.8712 18.0793 0026876 244.8478 114.9860 15.15990643273527
ZACUBE-1
1 39417U 13066B 18095.54509547 .00000200 00000-0 31631-4 0 9992
2 39417 097.5949 128.0338 0059933 034.4876 326.0203 14.80902403236047
TRITON-1
1 39427U 13066M 18095.41912453 .00000181 00000-0 36556-4 0 9992
2 39427 97.6401 96.1767 0115262 132.0112 229.0978 14.67630947233908
GOMX-1
1 39430U 13066Q 18095.88503875 .00000171 00000-0 40064-4 0 9999
2 39430 97.6920 77.9951 0151057 198.2778 161.2960 14.59047592232618
LO-74
1 39440U 13066AA 18095.51867374 .00000208 00000-0 35894-4 0 9993
2 39440 097.6062 115.0554 0082033 071.9658 289.0469 14.75636776234004
AO-73
1 39444U 13066AE 18095.30883920 .00000252 00000-0 37496-4 0 9998
2 39444 097.5960 129.2428 0059008 031.0136 329.4540 14.81671915234274
SPROUT
1 39770U 14029E 18095.84293179 .00000429 00000-0 54332-4 0 9994
2 39770 97.8727 197.5160 0010828 87.5211 272.7257 14.86747132209613
DUCHIFAT-1
1 40021U 14033M 18095.34305856 .00000359 00000-0 42814-4 0 9995
2 40021 97.9170 13.9302 0014379 61.4542 298.8121 14.90244436206103
NANOSATCBR1
1 40024U 14033Q 18095.54981015 .00000288 00000-0 36174-4 0 9990
2 40024 097.9109 012.5222 0013692 062.9027 297.3585 14.89516327205549
EO-79
1 40025U 14033R 18095.55624155 .00000278 00000-0 35794-4 0 9997
2 40025 097.9074 011.0973 0013918 066.5424 293.7254 14.88669462205473
DTUSAT-2
1 40030U 14033W 18095.30047827 .00000284 00000-0 36747-4 0 9997
2 40030 97.9025 9.6297 0013321 62.7289 297.5283 14.88280835205895
EO-80
1 40032U 14033Y 18095.55703427 .00000272 00000-0 35466-4 0 9995
2 40032 097.9031 009.8889 0013267 062.5523 297.7041 14.88217354205408
ANTELSAT
1 40034U 14033AA 18095.22484872 .00000223 00000-0 40575-4 0 9994
2 40034 097.8217 334.4854 0060351 073.4097 287.3728 14.73887749203407
VELOX-1
1 40057U 14034E 18095.70561983 .00000292 00000-0 48667-4 0 9998
2 40057 98.1952 205.5361 0010688 193.0539 167.0397 14.77378708202949
DAURIA DX 1
1 40071U 14037C 18095.79687773 .00000117 00000-0 22507-4 0 9993
2 40071 98.3625 223.9794 0007977 184.8136 175.3010 14.81138793202280
UKUBE-1
1 40074U 14037F 18095.72530585 .00000248 00000-0 37100-4 0 9997
2 40074 98.3753 229.3732 0004551 172.0595 188.0690 14.83752182202551
HODOYOSHI-1
1 40299U 14070B 18095.78452549 .00000572 00000-0 27385-4 0 9996
2 40299 97.3798 178.8352 0013943 138.8571 316.6201 15.22801275189466
CHUBUSAT-1
1 40300U 14070C 18095.74991802 .00000664 00000-0 32474-4 0 9992
2 40300 97.3680 174.9841 0020951 151.7733 307.3168 15.21462929189265
QSAT-EOS
1 40301U 14070D 18095.86389001 .00001687 00000-0 70837-4 0 9999
2 40301 97.3622 176.1026 0027602 144.2159 308.7753 15.24505116189400
FIREBIRD FU3
1 40377U 15003B 18095.63570229 .00001935 00000-0 82691-4 0 9995
2 40377 99.0951 342.9866 0133043 111.7528 249.7921 15.16912220175324
FIREBIRD FU4
1 40378U 15003C 18095.62502196 .00001893 00000-0 80900-4 0 9997
2 40378 99.0953 343.0280 0133263 111.6825 249.8655 15.16922417175326
GRIFEX
1 40379U 15003D 18095.25849364 .00001492 00000-0 68978-4 0 9994
2 40379 99.0989 339.0839 0139891 124.3858 237.0690 15.14109868175065
NO-84
1 40654U 15025D 18095.21844091 .00004715 00000-0 85336-4 0 02645
2 40654 054.9963 005.6236 0157789 284.1388 074.2174 15.39382345044602
NO-83
1 40655U 15025E 18095.14774638 .00011632 00000-0 13825-3 0 03063
2 40655 054.9791 317.0647 0112571 313.7359 045.4402 15.54361800044913
DEORBITSAIL
1 40719U 15032E 18095.66731964 .00000384 00000-0 62574-4 0 9990
2 40719 97.9528 350.3350 0015101 283.9734 75.9796 14.76375083147476
NUDT-PHONESAT
1 40900U 15049B 18095.81490172 .00001930 00000-0 90046-4 0 9993
2 40900 97.4433 104.9119 0011783 284.8280 75.1650 15.21006003140919
XW-2A
1 40903U 15049E 18095.80899316 .00001666 00000-0 43532-4 0 9992
2 40903 97.3926 129.9242 0012642 294.5046 65.4882 15.40205272142668
XW-2C
1 40906U 15049H 18095.80399184 .00000615 00000-0 36325-4 0 9998
2 40906 97.4607 100.6263 0013412 282.4535 77.5196 15.15090503140539
XW-2D
1 40907U 15049J 18095.82952545 .00000653 00000-0 38222-4 0 9997
2 40907 97.4580 100.3572 0012756 279.9718 80.0075 15.15234205140549
LILACSAT-2
1 40908U 15049K 18095.81582891 .00000345 00000-0 22909-4 0 9993
2 40908 97.4690 99.7948 0014420 281.0579 78.9031 15.13451251140424
XW-2F
1 40910U 15049M 18095.83390207 .00000958 00000-0 52715-4 0 9994
2 40910 97.4585 101.5462 0013445 275.4562 84.5137 15.16376557140482
